Skip Page Navigation
NASA JPL Caltech
NASA Logo - Jet Propulsion Laboratory + View the NASA Portal
+ Near-Earth Object (NEO) Program
Search JPL
JPL Home Earth Solar System Stars & Galaxies Technology
JPL Solar System Dynamics
BODIES ORBITS EPHEMERIDES TOOLS PHYSICAL DATA DISCOVERY FAQ SITE MAP
JPL Small-Body Database Browser
Search: [ help ]  
43959 (1997 CB26)
Classification: Main-belt Asteroid          SPK-ID: 2043959
Ephemeris | Orbit Diagram | Orbital Elements | Physical Parameters | Discovery Circumstances | Close-Approach Data ]

[ show orbit diagram ]
Orbital Elements at Epoch 2456800.5 (2014-May-23.0) TDB
Reference: JPL 10 (heliocentric ecliptic J2000)
 Element Value Uncertainty (1-sigma)   Units 
e .0668297240734982 5.803e-08  
a 2.353277061115498 1.819e-08 AU
q 2.196008204452657 1.4228e-07 AU
i 5.942764869547756 7.2949e-06 deg
node 320.9186357035162 6.4806e-05 deg
peri 113.229834769557 9.6915e-05 deg
M 348.8770093631124 7.1294e-05 deg
tp 2456841.240568974239
(2014-Jul-02.74056897)
0.0002613 JED
period 1318.584660323867
3.61
1.5289e-05
4.186e-08
d
yr
n .273020012163328 3.1656e-09 deg/d
Q 2.51054591777834 1.9406e-08 AU
  Orbit Determination Parameters
   # obs. used (total)      873  
   data-arc span      6176 days (16.91 yr)  
   first obs. used      1997-02-12  
   last obs. used      2014-01-10  
   planetary ephem.      DE431  
   SB-pert. ephem.      SB431-BIG16  
   condition code      0  
   fit RMS      .54666  
   data source      ORB  
   producer      Otto Matic  
   solution date      2014-Jan-22 12:06:33  

Additional Information
 Earth MOID = 1.21832 AU 
 T_jup = 3.546 
[ show covariance matrix ]

Ephemeris | Orbit Diagram | Orbital Elements | Physical Parameters | Discovery Circumstances | Close-Approach Data ]

Physical Parameter Table
Parameter Symbol Value Units Sigma Reference Notes
absolute magnitude H 13.8 mag n/a MPO267851  

43959 (1997 CB26)          Discovered 1997-Feb-12 by Shimizu, Y., Urata, T. at Nachi-Katsuura (905)
Reference: 20020822/Numbers.arcLast Updated: 2004-04-19

[ show close-approach data ]
Alternate Designations
 1997 CB26 = 1999 TJ11 
Ephemeris | Orbit Diagram | Orbital Elements | Physical Parameters | Discovery Circumstances | Close-Approach Data ]
ABOUT SSD CREDITS/AWARDS PRIVACY/COPYRIGHT GLOSSARY LINKS
FirstGov 2014-Apr-23 11:54 UT
(server date/time)  
NASA Home Page
Site Manager:   Donald K. Yeomans
Webmaster  Alan B. Chamberlin